Radiation Dose at Monitoring Post of Fukushima Daini Nuclear Power Station
Date,Time,MP-1(microSv/h),MP-2(microSv/h),MP-3(microSv/h),MP-4(microSv/h),MP-5(microSv/h),MP-6(microSv/h),MP-7(microSv/h),Wind Direction,Wind Velocity(m/s),Rain
2018/08/31,00:00,0.309,0.192,0.316,0.302,0.281,0.156,0.096,southwest,6.0,No
2018/08/31,00:10,0.313,0.193,0.314,0.300,0.284,0.155,0.096,west-southwest,4.6,No
2018/08/31,00:20,0.313,0.194,0.311,0.303,0.285,0.156,0.095,west-southwest,1.7,No
2018/08/31,00:30,0.310,0.193,0.316,0.304,0.282,0.157,0.095,west,1.7,No
2018/08/31,00:40,0.314,0.192,0.313,0.301,0.282,0.155,0.097,west,1.6,Yes
2018/08/31,00:50,0.314,0.194,0.312,0.303,0.287,0.155,0.096,northwest,2.3,Yes
2018/08/31,01:00,0.311,0.194,0.315,0.303,0.285,0.156,0.096,north,1.9,Yes
2018/08/31,01:10,0.313,0.194,0.315,0.302,0.281,0.157,0.097,-,CALM,Yes
2018/08/31,01:20,0.316,0.198,0.314,0.302,0.288,0.159,0.100,southwest,0.7,Yes
2018/08/31,01:30,0.314,0.196,0.317,0.307,0.288,0.162,0.101,south-southeast,3.3,No
2018/08/31,01:40,0.313,0.197,0.316,0.304,0.285,0.160,0.101,south-southeast,3.3,No
2018/08/31,01:50,0.316,0.198,0.313,0.303,0.288,0.159,0.101,south-southwest,2.5,No
2018/08/31,02:00,0.313,0.195,0.316,0.305,0.287,0.159,0.099,south-southwest,5.1,No
2018/08/31,02:10,0.313,0.195,0.316,0.303,0.283,0.157,0.099,south-southwest,4.7,No
2018/08/31,02:20,0.315,0.196,0.311,0.300,0.284,0.156,0.099,south-southwest,1.4,No
2018/08/31,02:30,0.311,0.194,0.316,0.303,0.287,0.156,0.098,-,CALM,No
2018/08/31,02:40,0.310,0.194,0.313,0.302,0.283,0.157,0.097,west-northwest,0.9,No
2018/08/31,02:50,0.311,0.194,0.311,0.299,0.282,0.154,0.097,north-northwest,2.6,No
2018/08/31,03:00,0.310,0.192,0.314,0.303,0.286,0.156,0.097,north-northwest,2.8,No
2018/08/31,03:10,0.308,0.194,0.313,0.302,0.283,0.155,0.096,north,2.3,No
2018/08/31,03:20,0.312,0.194,0.310,0.298,0.281,0.154,0.097,north,3.2,No
2018/08/31,03:30,0.310,0.190,0.312,0.301,0.285,0.154,0.096,north,2.5,No
2018/08/31,03:40,0.307,0.192,0.312,0.299,0.283,0.155,0.095,north-northeast,2.5,No
2018/08/31,03:50,0.310,0.192,0.309,0.298,0.280,0.154,0.096,northeast,2.0,No
2018/08/31,04:00,0.309,0.190,0.311,0.301,0.284,0.154,0.096,northeast,2.2,No
2018/08/31,04:10,0.308,0.192,0.311,0.299,0.282,0.155,0.095,north-northeast,1.3,No
2018/08/31,04:20,0.311,0.193,0.310,0.297,0.280,0.154,0.096,northeast,1.2,Yes
2018/08/31,04:30,0.310,0.191,0.313,0.301,0.284,0.154,0.097,north-northeast,1.1,No
2018/08/31,04:40,0.307,0.192,0.312,0.301,0.285,0.156,0.096,west,1.3,No
2018/08/31,04:50,0.311,0.192,0.308,0.299,0.281,0.155,0.097,southwest,1.2,No
2018/08/31,05:00,0.310,0.191,0.313,0.300,0.281,0.153,0.096,south-southwest,1.8,No
2018/08/31,05:10,0.307,0.192,0.312,0.301,0.285,0.155,0.095,south,2.5,No
2018/08/31,05:20,0.308,0.191,0.309,0.297,0.280,0.155,0.095,south-southwest,2.5,No
2018/08/31,05:30,0.312,0.190,0.312,0.299,0.279,0.153,0.096,southwest,2.0,No
2018/08/31,05:40,0.307,0.192,0.313,0.302,0.284,0.155,0.095,south,3.6,No
2018/08/31,05:50,0.308,0.192,0.308,0.298,0.283,0.154,0.096,south,3.1,No
2018/08/31,06:00,0.311,0.190,0.312,0.299,0.280,0.154,0.096,south,3.7,No
2018/08/31,06:10,0.309,0.192,0.312,0.301,0.282,0.154,0.095,south-southwest,3.8,No
2018/08/31,06:20,0.306,0.192,0.308,0.299,0.285,0.155,0.095,south-southwest,5.0,No
2018/08/31,06:30,0.311,0.190,0.310,0.298,0.281,0.154,0.096,south-southwest,5.4,No
2018/08/31,06:40,0.308,0.191,0.312,0.301,0.279,0.153,0.095,south,4.4,No
2018/08/31,06:50,0.307,0.192,0.309,0.300,0.283,0.155,0.094,south,3.9,No
2018/08/31,07:00,0.308,0.191,0.309,0.298,0.283,0.154,0.096,south-southwest,3.9,No
2018/08/31,07:10,0.312,0.190,0.312,0.299,0.280,0.154,0.095,south-southwest,3.3,No
2018/08/31,07:20,0.309,0.191,0.313,0.302,0.278,0.153,0.096,south-southwest,2.8,No
2018/08/31,07:30,0.307,0.192,0.311,0.299,0.280,0.155,0.095,south,1.4,No
2018/08/31,07:40,0.306,0.191,0.308,0.296,0.284,0.154,0.095,south-southwest,0.8,No
2018/08/31,07:50,0.311,0.192,0.308,0.298,0.283,0.153,0.095,south-southeast,0.8,No
2018/08/31,08:00,0.311,0.190,0.312,0.296,0.281,0.153,0.093,south-southwest,1.0,No
2018/08/31,08:10,0.309,0.189,0.311,0.301,0.280,0.154,0.094,southwest,1.0,No
2018/08/31,08:20,0.305,0.190,0.309,0.302,0.279,0.154,0.094,southwest,1.2,No
2018/08/31,08:30,0.306,0.189,0.309,0.300,0.280,0.154,0.094,southwest,1.6,No
2018/08/31,08:40,0.305,0.190,0.309,0.298,0.279,0.154,0.094,south,1.7,No
2018/08/31,08:50,0.307,0.189,0.312,0.298,0.279,0.154,0.095,south,2.4,No
2018/08/31,09:00,0.307,0.191,0.313,0.298,0.281,0.153,0.094,south,3.0,No
2018/08/31,09:10,0.308,0.192,0.310,0.298,0.281,0.154,0.095,south-southeast,2.9,No
2018/08/31,09:20,0.308,0.192,0.309,0.300,0.282,0.155,0.096,south-southeast,3.5,No
2018/08/31,09:30,0.308,0.192,0.309,0.299,0.283,0.153,0.095,south-southeast,2.7,No
2018/08/31,09:40,0.310,0.191,0.308,0.300,0.282,0.154,0.094,southeast,2.5,No
2018/08/31,09:50,0.310,0.192,0.309,0.300,0.283,0.154,0.095,south-southeast,1.8,No
2018/08/31,10:00,0.310,0.191,0.307,0.299,0.283,0.154,0.094,southeast,1.8,No
2018/08/31,10:10,0.308,0.190,0.309,0.296,0.283,0.154,0.095,southeast,2.0,No
2018/08/31,10:20,0.309,0.191,0.308,0.299,0.282,0.154,0.095,south,2.2,No
2018/08/31,10:30,0.310,0.192,0.309,0.298,0.283,0.154,0.095,south,2.6,No
2018/08/31,10:40,0.308,0.192,0.308,0.300,0.282,0.153,0.095,south,3.1,No
2018/08/31,10:50,0.309,0.192,0.309,0.300,0.283,0.154,0.094,south-southeast,3.3,No
2018/08/31,11:00,0.308,0.192,0.311,0.300,0.282,0.154,0.095,south,3.4,No
2018/08/31,11:10,0.309,0.190,0.310,0.300,0.284,0.154,0.095,south,3.8,No
2018/08/31,11:20,0.310,0.192,0.309,0.299,0.282,0.154,0.094,south,2.7,No
2018/08/31,11:30,0.309,0.192,0.310,0.300,0.280,0.154,0.094,south,1.9,No
2018/08/31,11:40,0.310,0.191,0.311,0.301,0.283,0.153,0.095,south,1.9,No
2018/08/31,11:50,0.309,0.191,0.310,0.300,0.283,0.154,0.094,south-southeast,2.3,No
2018/08/31,12:00,0.310,0.191,0.312,0.301,0.282,0.154,0.094,south,3.6,No
2018/08/31,12:10,0.311,0.191,0.311,0.299,0.283,0.154,0.094,southwest,2.2,No
2018/08/31,12:20,0.310,0.192,0.311,0.299,0.281,0.154,0.095,west-southwest,2.6,No
2018/08/31,12:30,0.311,0.192,0.310,0.299,0.282,0.154,0.094,west,5.8,No
2018/08/31,12:40,0.309,0.190,0.310,0.300,0.281,0.154,0.095,west,3.5,No
2018/08/31,12:50,0.310,0.190,0.311,0.300,0.281,0.155,0.094,west-northwest,0.8,No
2018/08/31,13:00,0.309,0.191,0.310,0.299,0.282,0.153,0.095,southwest,1.2,No
2018/08/31,13:10,0.312,0.192,0.309,0.300,0.283,0.155,0.095,south,1.9,No
2018/08/31,13:20,0.309,0.192,0.309,0.300,0.283,0.154,0.094,south,2.0,No
2018/08/31,13:30,0.309,0.192,0.311,0.300,0.283,0.154,0.094,south,3.8,No
2018/08/31,13:40,0.307,0.192,0.310,0.299,0.282,0.153,0.093,south-southwest,5.9,No
2018/08/31,13:50,0.309,0.191,0.309,0.299,0.283,0.154,0.094,south-southwest,6.5,No
2018/08/31,14:00,0.309,0.191,0.310,0.299,0.283,0.154,0.094,south-southwest,6.0,No
2018/08/31,14:10,0.307,0.191,0.315,0.297,0.281,0.154,0.094,south-southwest,6.6,No
2018/08/31,14:20,0.308,0.189,0.315,0.297,0.282,0.154,0.094,south-southwest,4.9,No
2018/08/31,14:30,0.308,0.190,0.312,0.299,0.280,0.155,0.093,south-southwest,4.1,No
2018/08/31,14:40,0.310,0.190,0.312,0.298,0.281,0.154,0.093,south-southwest,6.8,No
2018/08/31,14:50,0.313,0.190,0.310,0.301,0.282,0.155,0.094,south-southwest,8.4,No
2018/08/31,15:00,0.312,0.190,0.310,0.304,0.282,0.156,0.095,south-southwest,7.2,No
2018/08/31,15:10,0.311,0.191,0.310,0.303,0.282,0.155,0.095,south-southwest,6.6,No
2018/08/31,15:20,0.309,0.190,0.309,0.300,0.282,0.155,0.095,south-southwest,5.7,No
2018/08/31,15:30,0.309,0.190,0.311,0.301,0.282,0.154,0.095,south-southwest,5.3,No
2018/08/31,15:40,0.308,0.191,0.314,0.298,0.281,0.154,0.094,south-southwest,5.4,No
2018/08/31,15:50,0.308,0.191,0.313,0.300,0.281,0.153,0.094,south-southwest,5.9,No
2018/08/31,16:00,0.308,0.190,0.312,0.297,0.282,0.154,0.095,south-southwest,5.0,No
2018/08/31,16:10,0.314,0.192,0.310,0.298,0.284,0.154,0.093,south-southwest,5.1,Yes
2018/08/31,16:20,0.312,0.193,0.311,0.301,0.288,0.155,0.095,southwest,3.9,Yes
2018/08/31,16:30,0.312,0.192,0.311,0.305,0.286,0.156,0.096,south-southwest,6.5,Yes
2018/08/31,16:40,0.309,0.191,0.316,0.304,0.284,0.156,0.096,south-southwest,6.7,Yes
2018/08/31,16:50,0.312,0.194,0.315,0.302,0.281,0.157,0.097,south-southwest,6.7,Yes
2018/08/31,17:00,0.317,0.195,0.314,0.300,0.287,0.157,0.098,south-southwest,4.1,Yes
2018/08/31,17:10,0.314,0.194,0.313,0.304,0.287,0.158,0.097,south-southwest,4.9,Yes
2018/08/31,17:20,0.309,0.193,0.316,0.304,0.284,0.157,0.097,south-southwest,7.6,Yes
2018/08/31,17:30,0.314,0.195,0.314,0.301,0.283,0.156,0.096,south-southwest,6.3,No
2018/08/31,17:40,0.314,0.194,0.312,0.303,0.288,0.157,0.097,south-southwest,7.2,No
2018/08/31,17:50,0.311,0.193,0.316,0.304,0.284,0.157,0.097,south-southwest,6.9,No
2018/08/31,18:00,0.311,0.193,0.314,0.301,0.282,0.155,0.096,south-southwest,7.6,No
2018/08/31,18:10,0.314,0.193,0.310,0.300,0.284,0.156,0.096,south-southwest,7.1,No
2018/08/31,18:20,0.312,0.192,0.315,0.303,0.285,0.156,0.096,south-southwest,4.7,Yes
2018/08/31,18:30,0.308,0.192,0.311,0.301,0.282,0.155,0.096,south-southwest,6.4,No
2018/08/31,18:40,0.314,0.192,0.310,0.300,0.281,0.154,0.094,south-southwest,5.2,No
2018/08/31,18:50,0.312,0.191,0.314,0.303,0.285,0.155,0.096,south-southwest,5.0,No
2018/08/31,19:00,0.307,0.192,0.312,0.302,0.284,0.154,0.095,south-southwest,4.8,No
2018/08/31,19:10,0.313,0.193,0.312,0.297,0.280,0.154,0.094,south,4.8,No
2018/08/31,19:20,0.312,0.191,0.313,0.301,0.282,0.155,0.095,south,5.0,No
2018/08/31,19:30,0.310,0.190,0.314,0.302,0.286,0.154,0.094,south-southwest,5.4,No
2018/08/31,19:40,0.310,0.193,0.312,0.299,0.282,0.154,0.094,south-southwest,4.7,No
2018/08/31,19:50,0.313,0.191,0.311,0.300,0.279,0.155,0.095,southwest,4.7,No
2018/08/31,20:00,0.310,0.191,0.314,0.300,0.283,0.155,0.095,southwest,4.6,No
2018/08/31,20:10,0.308,0.193,0.312,0.300,0.283,0.154,0.095,south-southwest,4.4,No
2018/08/31,20:20,0.313,0.192,0.310,0.299,0.280,0.155,0.094,southwest,4.2,No
2018/08/31,20:30,0.310,0.192,0.314,0.303,0.281,0.154,0.095,southwest,4.2,No
2018/08/31,20:40,0.308,0.193,0.312,0.300,0.284,0.153,0.093,west-southwest,4.0,No
2018/08/31,20:50,0.314,0.191,0.310,0.299,0.282,0.154,0.094,southwest,4.6,No
2018/08/31,21:00,0.312,0.191,0.313,0.302,0.279,0.154,0.094,southwest,4.8,No
2018/08/31,21:10,0.310,0.193,0.313,0.302,0.284,0.153,0.094,southwest,5.7,No
2018/08/31,21:20,0.310,0.191,0.311,0.298,0.283,0.154,0.094,southwest,4.7,No
2018/08/31,21:30,0.311,0.191,0.310,0.301,0.280,0.154,0.095,southwest,4.5,No
2018/08/31,21:40,0.310,0.192,0.314,0.302,0.281,0.153,0.095,southwest,4.6,No
2018/08/31,21:50,0.310,0.191,0.313,0.300,0.284,0.154,0.095,southwest,4.1,No
2018/08/31,22:00,0.313,0.191,0.311,0.300,0.280,0.154,0.094,west-southwest,3.0,No
2018/08/31,22:10,0.311,0.192,0.315,0.303,0.280,0.154,0.095,west,1.7,No
2018/08/31,22:20,0.311,0.191,0.312,0.300,0.286,0.153,0.094,west-southwest,1.2,No
2018/08/31,22:30,0.313,0.191,0.312,0.300,0.283,0.154,0.095,-,CALM,No
2018/08/31,22:40,0.311,0.194,0.313,0.304,0.281,0.154,0.094,-,CALM,No
2018/08/31,22:50,0.310,0.190,0.313,0.301,0.284,0.155,0.094,-,CALM,No
2018/08/31,23:00,0.313,0.192,0.313,0.301,0.283,0.154,0.094,west,2.0,No
2018/08/31,23:10,0.310,0.191,0.316,0.304,0.281,0.153,0.094,west,3.6,No
2018/08/31,23:20,0.310,0.191,0.312,0.300,0.283,0.155,0.095,west-northwest,2.2,No
2018/08/31,23:30,0.313,0.192,0.312,0.299,0.285,0.155,0.094,southwest,2.6,No
2018/08/31,23:40,0.310,0.193,0.314,0.303,0.282,0.153,0.096,west-southwest,2.7,No
2018/08/31,23:50,0.309,0.191,0.312,0.300,0.281,0.155,0.095,west,2.8,No
